Change the Weather History Date:

Tuesday, April 8, 2014

  Actual Average Record
Temperature  
Mean Temperature 39 °F 37 °F  
Max Temperature 47 °F 45 °F 65 °F (1945)
Min Temperature 30 °F 28 °F 1 °F (1950)
Degree Days  
Heating Degree Days 26 28  
Month to date heating degree days 269 240  
Since 1 July heating degree days 8483 7566  
Cooling Degree Days 0 0  
Month to date cooling degree days 0 0  
Year to date cooling degree days 0 0  
Moisture  
Dew Point 29 °F    
Average Humidity 69    
Maximum Humidity 89    
Minimum Humidity 49    
Precipitation  
Precipitation 0.00 in 0.08 in 1.63 in (1980)
Month to date precipitation 0.73 0.66  
Year to date precipitation 5.80 6.14  
Snow  
Snow 0.00 in 0.30 in 7.20 in (2010)
Month to date snowfall 4.4 2.6  
Since 1 July snowfall 128.7 116.2  
Snow Depth 22.00 in    
Sea Level Pressure  
Sea Level Pressure 29.68 in    
Wind  
Wind Speed 10 mph (WNW)    
Max Wind Speed 21 mph    
Max Gust Speed 29 mph    
Visibility 10 miles    
Events      
T = Trace of Precipitation, MM = Missing Value Source: NWS Daily Summary

Daily Weather History Graph

Daily Weather History Graph

Search for Another Location

Airport or City:

Trip Planner

Search our weather history database for the weather conditions in past years. The results will help you decide how hot, cold, wet, or windy it might be!

Date:

Astronomy

Apr. 08, 2014 Rise Set
Actual Time 7:03 AM EDT 8:15 PM EDT
Civil Twilight 6:32 AM EDT 8:46 PM EDT
Nautical Twilight 5:55 AM EDT 9:24 PM EDT
Astronomical Twilight 5:15 AM EDT 10:04 PM EDT
Moon 1:48 PM EDT (4/8) 3:36 AM EDT (4/8)
Length of Visible Light 14h 14m
Length of Day
13h 12m
Waxing Gibbous, 62% of the Moon is Illuminated
Apr 8
Waxing Gibbous
Apr 15
Full
Apr 22
Last Quarter
Apr 29
New
May 6
First Quarter

Hourly Weather History & Observations

Time (EDT) Temp. Windchill Dew Point Humidity Pressure Visibility Wind Dir Wind Speed Gust Speed Precip Events Conditions
12:55 AM 39.9 °F 34.5 °F 26.1 °F 58% 29.62 in 10.0 mi NW 8.1 mph - N/A   Overcast
1:55 AM 37.9 °F 34.4 °F 27.0 °F 65% 29.60 in 10.0 mi WNW 4.6 mph - N/A   Mostly Cloudy
2:55 AM 35.1 °F 29.3 °F 28.0 °F 76% 29.57 in 10.0 mi West 6.9 mph - N/A   Scattered Clouds
3:55 AM 34.0 °F 28.8 °F 28.9 °F 82% 29.56 in 10.0 mi West 5.8 mph - N/A   Mostly Cloudy
4:55 AM 33.1 °F 26.9 °F 28.9 °F 85% 29.56 in 10.0 mi WNW 6.9 mph - N/A   Mostly Cloudy
5:55 AM 33.1 °F 25.5 °F 28.9 °F 85% 29.55 in 10.0 mi WNW 9.2 mph - N/A   Overcast
6:55 AM 33.1 °F 23.9 °F 28.9 °F 85% 29.56 in 10.0 mi NW 12.7 mph - N/A   Overcast
7:55 AM 32.0 °F 23.0 °F 28.9 °F 88% 29.58 in 9.0 mi WNW 11.5 mph - N/A   Partly Cloudy
8:55 AM 34.0 °F 26.6 °F 30.0 °F 85% 29.60 in 10.0 mi WNW 9.2 mph - N/A   Mostly Cloudy
9:55 AM 37.9 °F 32.7 °F 30.0 °F 73% 29.60 in 10.0 mi WNW 6.9 mph - N/A   Overcast
10:55 AM 39.9 °F 32.9 °F 30.9 °F 70% 29.62 in 10.0 mi WNW 11.5 mph - N/A   Clear
11:55 AM 41.0 °F 33.9 °F 30.9 °F 67% 29.64 in 10.0 mi WNW 12.7 mph - N/A   Mostly Cloudy
12:55 PM 44.1 °F 38.1 °F 30.9 °F 60% 29.65 in 10.0 mi WNW 11.5 mph - N/A   Clear
1:55 PM 44.1 °F 38.1 °F 30.0 °F 58% 29.67 in 10.0 mi West 11.5 mph - N/A   Clear
2:55 PM 46.9 °F - 28.0 °F 48% 29.68 in 10.0 mi WNW 10.4 mph - N/A   Partly Cloudy
3:55 PM 42.1 °F 34.9 °F 30.0 °F 62% 29.71 in 10.0 mi WNW 13.8 mph 25.3 mph N/A   Clear
4:55 PM 41.0 °F 33.1 °F 30.0 °F 65% 29.72 in 10.0 mi WNW 15.0 mph 23.0 mph N/A   Clear
5:55 PM 41.0 °F 34.3 °F 30.0 °F 65% 29.75 in 10.0 mi NW 11.5 mph - N/A   Clear
6:55 PM 39.9 °F 33.4 °F 28.9 °F 65% 29.78 in 10.0 mi West 10.4 mph - N/A   Clear
7:55 PM 37.0 °F 31.0 °F 28.0 °F 70% 29.80 in 10.0 mi WNW 8.1 mph - N/A   Clear
8:55 PM 34.0 °F 24.6 °F 27.0 °F 75% 29.82 in 10.0 mi WNW 13.8 mph - N/A   Partly Cloudy
9:55 PM 33.1 °F 24.9 °F 26.1 °F 75% 29.84 in 10.0 mi West 10.4 mph - N/A   Clear
10:55 PM 32.0 °F 24.8 °F 26.1 °F 79% 29.84 in 10.0 mi West 8.1 mph - N/A   Clear
11:55 PM 32.0 °F 24.2 °F 25.0 °F 75% 29.85 in 10.0 mi WNW 9.2 mph - N/A   Clear